TimeEST,TemperatureF,Dew PointF,Humidity,Sea Level PressureIn,VisibilityMPH,Wind Direction,Wind SpeedMPH,Gust SpeedMPH,PrecipitationIn,Events,Conditions,WindDirDegrees,DateUTC
12:15 AM,28.4,21.2,74,29.88,10.0,West,17.3,24.2,N/A,,Overcast,260,2012-02-25 05:15:00
12:35 AM,28.4,21.2,74,29.89,10.0,West,17.3,26.5,N/A,,Overcast,270,2012-02-25 05:35:00
12:55 AM,26.6,21.2,80,29.89,10.0,West,18.4,23.0,N/A,,Overcast,270,2012-02-25 05:55:00
1:15 AM,26.6,19.4,74,29.89,10.0,West,19.6,25.3,N/A,,Overcast,260,2012-02-25 06:15:00
1:55 AM,26.6,19.4,74,29.90,10.0,West,19.6,26.5,N/A,,Overcast,280,2012-02-25 06:55:00
2:15 AM,26.6,19.4,74,29.90,10.0,West,20.7,27.6,N/A,,Overcast,280,2012-02-25 07:15:00
2:35 AM,26.6,19.4,74,29.90,10.0,West,21.9,26.5,N/A,,Mostly Cloudy,270,2012-02-25 07:35:00
2:55 AM,26.6,19.4,74,29.91,10.0,West,17.3,26.5,N/A,,Mostly Cloudy,270,2012-02-25 07:55:00
3:15 AM,26.6,19.4,74,29.92,10.0,West,18.4,26.5,N/A,,Overcast,270,2012-02-25 08:15:00
3:55 AM,26.6,19.4,74,29.93,10.0,West,18.4,26.5,N/A,,Overcast,270,2012-02-25 08:55:00
4:15 AM,26.6,19.4,74,29.93,10.0,West,19.6,25.3,N/A,,Overcast,270,2012-02-25 09:15:00
4:35 AM,24.8,19.4,80,29.93,10.0,West,19.6,24.2,N/A,,Overcast,270,2012-02-25 09:35:00
6:15 AM,24.8,19.4,80,29.98,10.0,West,18.4,24.2,N/A,,Overcast,270,2012-02-25 11:15:00
6:35 AM,24.8,19.4,80,29.98,10.0,West,15.0,24.2,N/A,,Overcast,270,2012-02-25 11:35:00
6:55 AM,24.8,19.4,80,29.99,10.0,West,15.0,18.4,N/A,,Overcast,260,2012-02-25 11:55:00
7:15 AM,24.8,19.4,80,30.00,10.0,West,17.3,20.7,N/A,,Overcast,270,2012-02-25 12:15:00
7:35 AM,24.8,19.4,80,30.00,10.0,West,17.3,23.0,N/A,,Overcast,270,2012-02-25 12:35:00
7:55 AM,24.8,19.4,80,30.01,10.0,West,13.8,-,N/A,,Overcast,260,2012-02-25 12:55:00
8:15 AM,24.8,19.4,80,30.03,10.0,West,17.3,24.2,N/A,,Overcast,260,2012-02-25 13:15:00
8:35 AM,24.8,19.4,80,30.04,10.0,West,16.1,-,N/A,,Overcast,270,2012-02-25 13:35:00
9:15 AM,24.8,19.4,80,30.06,10.0,West,18.4,24.2,N/A,,Overcast,270,2012-02-25 14:15:00
9:35 AM,26.6,19.4,74,30.07,10.0,West,19.6,25.3,N/A,,Overcast,270,2012-02-25 14:35:00
10:15 AM,26.6,19.4,74,30.09,10.0,WNW,16.1,-,N/A,,Mostly Cloudy,290,2012-02-25 15:15:00
10:35 AM,28.4,21.2,74,30.10,10.0,West,18.4,23.0,N/A,,Mostly Cloudy,280,2012-02-25 15:35:00
10:55 AM,28.4,21.2,74,30.11,10.0,West,18.4,21.9,N/A,,Mostly Cloudy,280,2012-02-25 15:55:00
11:15 AM,28.4,21.2,74,30.12,10.0,WNW,18.4,26.5,N/A,,Mostly Cloudy,290,2012-02-25 16:15:00
11:35 AM,30.2,21.2,69,30.13,10.0,WNW,18.4,26.5,N/A,,Mostly Cloudy,290,2012-02-25 16:35:00
11:55 AM,28.4,19.4,69,30.15,10.0,West,18.4,23.0,N/A,,Mostly Cloudy,280,2012-02-25 16:55:00
12:15 PM,28.4,19.4,69,30.15,10.0,WNW,17.3,25.3,N/A,,Mostly Cloudy,290,2012-02-25 17:15:00
12:35 PM,30.2,19.4,64,30.16,10.0,West,20.7,25.3,N/A,,Mostly Cloudy,280,2012-02-25 17:35:00
1:15 PM,28.4,19.4,69,30.18,10.0,WNW,17.3,24.2,N/A,,Overcast,290,2012-02-25 18:15:00
1:55 PM,28.4,19.4,69,30.19,10.0,West,13.8,19.6,N/A,,Overcast,280,2012-02-25 18:55:00
2:15 PM,30.2,19.4,64,30.19,10.0,West,15.0,19.6,N/A,,Overcast,280,2012-02-25 19:15:00
2:35 PM,30.2,19.4,64,30.20,10.0,WNW,17.3,20.7,N/A,,Overcast,290,2012-02-25 19:35:00
2:55 PM,32.0,19.4,60,30.20,10.0,WNW,13.8,18.4,N/A,,Overcast,300,2012-02-25 19:55:00
3:15 PM,32.0,19.4,60,30.21,10.0,WNW,11.5,-,N/A,,Overcast,300,2012-02-25 20:15:00
3:35 PM,30.2,17.6,60,30.21,10.0,WNW,10.4,20.7,N/A,,Mostly Cloudy,290,2012-02-25 20:35:00
3:55 PM,30.2,19.4,64,30.23,10.0,WNW,9.2,16.1,N/A,,Overcast,300,2012-02-25 20:55:00
4:15 PM,32.0,19.4,60,30.23,10.0,West,11.5,-,N/A,,Overcast,280,2012-02-25 21:15:00
4:35 PM,32.0,17.6,55,30.23,10.0,WNW,12.7,16.1,N/A,,Scattered Clouds,290,2012-02-25 21:35:00
4:55 PM,30.2,17.6,60,30.23,10.0,WNW,11.5,-,N/A,,Scattered Clouds,300,2012-02-25 21:55:00
5:15 PM,30.2,17.6,60,30.23,10.0,WNW,8.1,-,N/A,,Scattered Clouds,300,2012-02-25 22:15:00
5:35 PM,30.2,17.6,60,30.23,10.0,NW,9.2,-,N/A,,Scattered Clouds,310,2012-02-25 22:35:00
5:55 PM,30.2,17.6,60,30.24,10.0,NW,6.9,-,N/A,,Scattered Clouds,320,2012-02-25 22:55:00
6:15 PM,30.2,17.6,60,30.24,10.0,NW,4.6,-,N/A,,Clear,320,2012-02-25 23:15:00
6:35 PM,28.4,17.6,64,30.25,10.0,NW,4.6,-,N/A,,Clear,310,2012-02-25 23:35:00
6:55 PM,28.4,17.6,64,30.26,10.0,Calm,Calm,-,N/A,,Clear,0,2012-02-25 23:55:00
7:15 PM,26.6,17.6,69,30.26,10.0,Calm,Calm,-,N/A,,Clear,0,2012-02-26 00:15:00
7:35 PM,28.4,17.6,64,30.28,10.0,Calm,Calm,-,N/A,,Clear,0,2012-02-26 00:35:00
8:15 PM,26.6,17.6,69,30.30,10.0,Calm,Calm,-,N/A,,Overcast,0,2012-02-26 01:15:00
8:55 PM,28.4,19.4,69,30.31,10.0,WSW,9.2,-,N/A,,Overcast,250,2012-02-26 01:55:00
9:15 PM,28.4,19.4,69,30.32,10.0,WSW,8.1,-,N/A,,Overcast,240,2012-02-26 02:15:00
9:35 PM,28.4,19.4,69,30.33,10.0,WSW,9.2,16.1,N/A,,Overcast,240,2012-02-26 02:35:00
9:55 PM,26.6,19.4,74,30.34,10.0,WSW,9.2,-,N/A,,Overcast,240,2012-02-26 02:55:00
10:15 PM,26.6,19.4,74,30.34,10.0,WSW,6.9,-,N/A,,Scattered Clouds,250,2012-02-26 03:15:00
10:35 PM,24.8,19.4,80,30.34,10.0,WSW,6.9,-,N/A,,Clear,240,2012-02-26 03:35:00
10:55 PM,24.8,17.6,74,30.34,10.0,WSW,4.6,-,N/A,,Clear,250,2012-02-26 03:55:00
11:15 PM,24.8,17.6,74,30.34,10.0,SW,4.6,-,N/A,,Clear,230,2012-02-26 04:15:00
11:35 PM,23.0,17.6,80,30.33,10.0,Calm,Calm,-,N/A,,Clear,0,2012-02-26 04:35:00
11:55 PM,23.0,17.6,80,30.33,10.0,Calm,Calm,-,N/A,,Clear,0,2012-02-26 04:55:00